Location: Proctor
(47.8934°N, 114.3048°W)
Time: 21:34:31
(UTC+00:00)

AO-92 - Pass Details

Date: 06 July 2022
Orbit: 469 x 481 km, 97.4° (Epoch: 13 August)

Event Time Altitude Azimuth Distance (km) Brightness Sun altitude
Exits shadow 06:30:27 15° 232° (SW) 1,382 ? -17.6°
Maximum altitude 06:32:08 20° 267° (W) 1,174 ? -17.7°
Drops below altitude 10° 06:34:49 10° 316° (NW) 1,670 ? -17.8°
Sets 06:37:20 0° 334° (NNW) 2,559 ? -17.9°
